Regional Weather Roundup
Issued by NWS

Home | Current Version | Previous Version | Text Only | Print | Product List | Glossary Off
Versions: 1 2 3 4 5 6 7 8 9 10 11 12 13 14 15 16 17 18 19 20 21 22 23 24 25 26 27 28 29 30 31 32 33 34 35 36 37 38 39 40 41 42 43 44 45 46 47 48 49 50

000
ASUS43 KFSD 181210
RWRSD

WEATHER ROUNDUP FOR SOUTH DAKOTA
NATIONAL WEATHER SERVICE SIOUX FALLS SD
700 AM CDT FRI AUG 18 2017

NOTE: "FAIR" INDICATES FEW OR NO CLOUDS BELOW 12,000 FEET WITH NO
SIGNIFICANT WEATHER AND/OR OBSTRUCTIONS TO VISIBILITY.


SDZ001>005-009-010-012>017-181300-
NORTHWEST AND NORTH CENTRAL SOUTH DAKOTA

CITY           SKY/WX    TMP DP  RH WIND       PRES   REMARKS
BUFFALO          N/A     60  45  57 NW7       29.94R
FAITH            N/A     55  47  74 N9        29.96R
MOBRIDGE       CLEAR     61  57  87 NW7       29.88R
$$

SDZ012>016-024>037-041>051-057-063-072>074-181300-
SOUTHWEST AND SOUTH CENTRAL SOUTH DAKOTA

CITY           SKY/WX    TMP DP  RH WIND       PRES   REMARKS
RAPID CTY ARPT PTCLDY    59  46  62 N13       30.01R
PIERRE         CLEAR     57  54  89 CALM      29.90R
CUSTER         CLOUDY    55  39  54 NW3       30.16R
ELLSWORTH AFB  PTCLDY    58  47  68 NW9       30.01R
PHILIP         CLEAR     56  50  80 W13       29.95R
PINE RIDGE     CLEAR     53  49  86 W5        30.04S
SPEARFISH      FAIR      63  43  48 W8        30.06S
WINNER         FAIR      59  54  83 SW7       29.93R
$$

SDZ004>011-016>023-039-040-181300-
NORTHEAST SOUTH DAKOTA

CITY           SKY/WX    TMP DP  RH WIND       PRES   REMARKS
ABERDEEN       PTCLDY    56  56 100 VRB3      29.89R
WATERTOWN      CLOUDY    62  57  83 CALM      29.92R
BROOKINGS      LGT RAIN  60  58  92 E15       29.87F
SISSETON         N/A     62  60  93 N3        29.84S
$$

SDZ017-020-022-023-036>040-048>070-181300-
SOUTHEAST SOUTH DAKOTA

CITY           SKY/WX    TMP DP  RH WIND       PRES   REMARKS
SIOUX FALLS    CLOUDY    61  60  97 N3        29.91R
HURON          CLEAR     60  58  92 S7        29.89R
CHAMBERLAIN    CLEAR     59  59 100 SW5       29.91R
MITCHELL       CLEAR     57  57 100 E6        29.90R FOG
YANKTON        CLEAR     59  57  93 S5        29.90F
$$

ABBREVIATIONS USED IN REMARKS
   TC - TEMPERATURE IN CELSIUS
  WCI - WIND CHILL INDEX
   HX - HEAT INDEX
  VSB - VISIBILITY




USA.gov is the U.S. government's official web portal to all federal, state and local government web resources and services.